Location: ?ern� Novina
(50.6762°N, 14.8696°E)
Time: 12:43:01
(UTC+00:00)

SL-4 R/B - Pass Details

Date: 03 March 2021
Orbit: 428 x 663 km, 51.6° (Epoch: 17 April)

Event Time Altitude Azimuth Distance (km) Brightness Sun altitude
Rises 18:12:15 0° 282° (WNW) 2,493 7.3 -14.5°
Reaches altitude 10° 18:14:26 10° 283° (WNW) 1,588 5.8 -14.9°
Maximum altitude 18:17:59 87° 193° (SSW) 444 1.5 -15.4°
Enters shadow 18:19:17 36° 107° (ESE) 707 2.0 -15.6°
